COSMOS 1275 DEB, 42206

Orbit data source: Space-Track

COSMOS 1275 DEB, 42206 is space debris in LEO originally from a launch on Thu, 04 Jun 1981 UTC launched from the Plesetsk Missile And Space Complex (PKMTR). Debris objects in space refer to the collection of defunct objects orbiting the Earth. Examples of debris include non-operational satellites, rocket bodies, and fragments generated from explosions, collisions, or faulty payload assembly.

Loading next visibility...
Identifier
42206, 1981-053TW
Orbit
LEO
Country
Flag of CISCIS
Related business
Manufacturer
Unknown
Mission
Spacecraft
Bus & Motor
Unknown
Mass
Unknown
Launch date (UTC)
1981-06-04 (45 years ago)
Launch vehicle
Unknown
Launch site
Plesetsk Missile And Space Complex (PKMTR)
Object type
Payload
Rocket body
Debris
Shape & HBR
Unknown shape, 0.1 m
Radar Cross Section
Small (<0.1 m²)

Expand to show TLE details & history
Last TLE update: 8 hours ago

TLE from 8 hours ago
0 COSMOS 1275 DEB
1 42206U 81053TW  25355.39653051  .00000554  00000-0  44927-3 0  9996
2 42206  82.9185 223.8871 0039795 281.2793 261.5123 13.88066074480314
Epoch: 2025-12-21T09:31Z
TLE epoch observation values (Epoch: 2025-12-21T09:31:00.236Z)
Latitude
-2.45311°
Longitude
171.22988°
Altitude
943.095 km
Speed
7.378 km/s
True Right ascension
02h 56m 45s
True Declination
-2° 26' 20"
Sunlit
Object was in full shadow at epoch
Visualization orbit readout
Latitude
Unknown
Longitude
Unknown
Altitude
Unknown
Speed
Unknown
Apparent Right ascension
Unknown
Apparent Declination
Unknown
Sunlit
N/A
Visualization observer readout
Local Sidereal Time
16:17:14
Azimuth
Unknown
Elevation
Unknown
Doppler factor
Unknown
Orbital elements
Apogee altitude
961.64 km
Perigee altitude
903.455 km
Semi-major axis
7,310.685 km
Eccentricity
0.00398
Inclination
82.9185°
RAAN
223.8871°
Arg. of periapsis
281.2793°
True anomaly
261.06161°
Mean anomaly
261.5123°
Eccentric anomaly
261.28692°
Mean motion
3.47221 °/min
Orbital period
103.68 mins
BSTAR
0.00044927
Loading maneuver chart data...
Computing Atmospheric mass density...
Loading historical data...
Loading historical data...
Loading historical data...
Loading historical data...
Loading historical data...
Loading historical data...
Loading historical data...

Documentation

Showing up to 5 results
|